Topeka Forbes, KS

10:45 AM CDT on March 27, 2017 (GMT -0500)
Forbes

Weather History for KFOE - January, 2014

Change the Weather History Date:

Thursday, January 23, 2014

  Actual Average Record
Temperature  
Mean Temperature 10 °F -  
Max Temperature 18 °F 41 °F 73 °F (1967)
Min Temperature 1 °F 20 °F -10 °F (1962)
Degree Days  
Heating Degree Days 56    
Moisture  
Dew Point -8 °F    
Average Humidity 52    
Maximum Humidity 69    
Minimum Humidity 31    
Precipitation  
Precipitation 0.00 in - - ()
Sea Level Pressure  
Sea Level Pressure 30.78 in    
Wind  
Wind Speed 12 mph (NW)    
Max Wind Speed 16 mph    
Max Gust Speed 26 mph    
Visibility 10 miles    
Events      
Averages and records for this station are not official NWS values.
T = Trace of Precipitation, MM = Missing Value Source: NWS Daily Summary

Daily Weather History Graph

Daily Weather History Graph

Search for Another Location

Airport or City:

Trip Planner

Search our weather history database for the weather conditions in past years. The results will help you decide how hot, cold, wet, or windy it might be!

Date:

Astronomy

Jan. 23, 2014 Rise Set
Actual Time 7:35 AM CST 5:33 PM CST
Civil Twilight 7:07 AM CST 6:02 PM CST
Nautical Twilight 6:34 AM CST 6:34 PM CST
Astronomical Twilight 6:03 AM CST 7:06 PM CST
Moon 12:02 AM CST (1/23) 11:15 AM CST (1/23)
Length of Visible Light 10h 55m
Length of Day
9h 57m
Waning Gibbous, 55% of the Moon is Illuminated
Jan 23
Waning Gibbous
Jan 23
Last Quarter
Jan 30
New
Feb 6
First Quarter
Feb 14
Full

Hourly Weather History & Observations

Time (CST) Temp. Windchill Dew Point Humidity Pressure Visibility Wind Dir Wind Speed Gust Speed Precip Events Conditions
12:53 AM 7.0 °F -9.8 °F -8.0 °F 51% 30.58 in 10.0 mi North 13.8 mph 26.5 mph N/A   Clear
1:53 AM 6.1 °F -11.6 °F -9.0 °F 50% 30.61 in 10.0 mi North 15.0 mph 25.3 mph N/A   Clear
2:53 AM 5.0 °F -12.3 °F -9.9 °F 50% 30.64 in 10.0 mi North 13.8 mph - N/A   Clear
3:53 AM 3.0 °F -16.1 °F -9.9 °F 55% 30.67 in 10.0 mi North 16.1 mph - N/A   Clear
4:53 AM 3.0 °F -12.5 °F -9.9 °F 55% 30.70 in 10.0 mi North 10.4 mph - N/A   Clear
5:53 AM 3.0 °F -12.5 °F -9.9 °F 55% 30.74 in 10.0 mi North 10.4 mph - N/A   Clear
6:53 AM 3.0 °F -14.1 °F -9.9 °F 55% 30.79 in 10.0 mi North 12.7 mph - N/A   Clear
7:53 AM 1.9 °F -15.5 °F -11.0 °F 55% 30.82 in 10.0 mi North 12.7 mph - N/A   Clear
8:53 AM 3.0 °F -14.8 °F -9.9 °F 55% 30.85 in 10.0 mi North 13.8 mph 19.6 mph N/A   Clear
9:53 AM 3.9 °F -15.0 °F -9.0 °F 55% 30.89 in 10.0 mi NNW 16.1 mph - N/A   Clear
10:53 AM 6.1 °F -10.2 °F -7.1 °F 55% 30.90 in 10.0 mi NNW 12.7 mph - N/A   Clear
11:53 AM 9.0 °F -6.6 °F -7.1 °F 48% 30.89 in 10.0 mi NNW 12.7 mph - N/A   Clear
12:53 PM 12.9 °F -1.6 °F -7.1 °F 41% 30.86 in 10.0 mi NW 12.7 mph - N/A   Clear
1:53 PM 16.0 °F 4.4 °F -7.1 °F 36% 30.84 in 10.0 mi NNW 9.2 mph - N/A   Clear
2:53 PM 17.1 °F 5.8 °F -7.1 °F 34% 30.83 in 10.0 mi NNW 9.2 mph - N/A   Clear
3:53 PM 18.0 °F 6.9 °F -8.0 °F 31% 30.82 in 10.0 mi NNW 9.2 mph - N/A   Clear
4:53 PM 16.0 °F 4.4 °F -7.1 °F 36% 30.82 in 10.0 mi NW 9.2 mph - N/A   Clear
5:53 PM 10.9 °F 1.4 °F -6.0 °F 47% 30.82 in 10.0 mi WNW 5.8 mph - N/A   Clear
6:53 PM 8.1 °F -2.0 °F -5.1 °F 55% 30.82 in 10.0 mi WSW 5.8 mph - N/A   Clear
7:53 PM 6.1 °F -6.8 °F -5.1 °F 60% 30.81 in 10.0 mi WSW 8.1 mph - N/A   Clear
8:53 PM 5.0 °F -5.6 °F -6.0 °F 61% 30.79 in 10.0 mi SW 5.8 mph - N/A   Clear
9:53 PM 3.0 °F -8.0 °F -6.0 °F 66% 30.78 in 10.0 mi SSW 5.8 mph - N/A   Clear
10:53 PM 1.9 °F -12.9 °F -6.0 °F 69% 30.75 in 10.0 mi SSW 9.2 mph - N/A   Clear
11:53 PM 5.0 °F -9.1 °F -5.1 °F 63% 30.71 in 10.0 mi SSW 9.2 mph - N/A   Clear